www.pogodaiklimat.ru

Погода и климат >> Архив погоды >> Мьянма >> Катха


ПОГОДА в Катхе

  • Прогноз погоды в Катхе
  • Монитор погоды в Катхе

АРХИВ ПОГОДЫ в Катхе

Время (UTC), дата Ветер
(напр.,м/с)
 
Видим.   Явления Облачность Т
(С)
Тd
(С)
f
(%)
Тe
(С)
Тes
(С)
Комфортность P
(гПа)
Po
(гПа)
Тmin
(С)
Tmax
(С)
R
(мм)
R24
(мм)
S
(см)
00 20.05 штиль 0 4000 м 3/1 600 м
[Cu hum Ac lent]
+26.1 +24.6 91 +37 +38 очень
душно
1005.7 994.8 +24.5
03 20.05 ЮВ 2 6000 м 5/3 600 м
[Cu Sc Ac As]
+34.0 +27.0 67 +52 +60 опасность
перегрева
1007.2 996.6
06 20.05 ЮВ 3 11 км 1/0
[Ac lent]
+39.0 +29.8 60 +64 +81 опасность
перегрева
1005.8 995.4
12 20.05 штиль 0 4000 м ясно +37.0 +29.1 64 +60 +61 опасность
перегрева
1001.3 990.9 +41.5
00 21.05 штиль 0 4000 м 3/1 600 м
[Cu hum Ac lent]
+26.0 +23.8 88 +36 +37 очень
душно
1004.9 994.1 +24.4
03 21.05 СВ 1 6000 м 3/0
[Ac lent Ci sp]
+35.5 +26.5 60 +52 +67 опасность
перегрева
1006.6 996.1
06 21.05 ЮВ 2 12 км ясно +39.2 +29.8 59 +64 +86 опасность
перегрева
1005.1 994.7
09 21.05 СВ 3 11 км 1/1 1000 м
[Cu hum Ac lent]
+41.5 +30.6 55 +69 +76 опасность
перегрева
1001.3 991.0
12 21.05 штиль 0 4000 м ясно +37.0 +27.4 58 +56 +56 опасность
перегрева
1000.4 990.0 +41.9
00 22.05 штиль 0 4000 м 3/1 600 м
[Cu hum Ac lent]
+27.0 +24.0 84 +37 +39 очень
душно
1004.9 994.1 +25.0
03 22.05 ЮВ 1 7000 м ясно +35.0 +26.6 62 +52 +69 опасность
перегрева
1005.9 995.4
06 22.05 СВ 1 12 км 3/1 1000 м
[Cu hum Ac lent]
+40.0 +30.6 59 +67 +86 опасность
перегрева
1004.5 994.1
09 22.05 СЗ 2 11 км 3/1 1000 м
[Cu hum Ac lent]
+41.0 +30.8 57 +69 +76 опасность
перегрева
1000.8 990.5
12 22.05 штиль 0 4000 м 1/1 1000 м
[Cu hum]
+36.0 +27.8 63 +56 +56 опасность
перегрева
999.4 989.0 +41.8
00 23.05 штиль 0 4000 м {морось} 1/1 1000 м
[Cu hum]
+28.0 +25.0 84 +40 +42 очень
душно
1005.3 994.5 +25.9 0.0
06 23.05 ЮВ 2 8000 м 6/3 1000 м
[Cu med, cong Ac As]
+37.0 +29.1 64 +60 +71 опасность
перегрева
1006.2 995.7
09 23.05 ЮЗ 10 4000 м гроза, ливневой дождь {морось} 9/5 600 м
[Cb cap Ac As]
+34.0 +28.8 74 +57 +57 опасность
перегрева
1001.4 990.9
12 23.05 ЮВ 3 3000 м {гроза, морось} 5/1 600 м
[Cu hum Ac lent Cs]
+28.1 +25.0 83 +40 +40 очень
душно
1003.2 992.4 +38.9 0.0
03 24.05 ЮВ 3 7000 м 4/1 1000 м
[Cu hum Ac lent Ci sp]
+30.5 +26.0 77 +46 +55 опасность
перегрева
1007.8 997.1
06 24.05 СВ 3 7000 м слаб. морось 9/5 600 м
[Cu Sc Ac As]
+27.0 +25.6 92 +40 +44 очень
душно
1007.2 996.4
09 24.05 СВ 2 9000 м {морось} 4/1 1000 м
[Cu hum Ac lent]
+32.0 +28.1 80 +53 +60 опасность
перегрева
1003.6 993.0
12 24.05 СВ 2 4000 м 1/0
[Ac lent]
+31.0 +25.4 72 +45 +45 опасность
перегрева
1002.6 992.0 +32.7 0.0
00 25.05 штиль 0 4000 м слаб. морось 8/5 600 м
[Cu Sc Ac As]
+25.0 +23.3 90 +33 +34 очень
душно
1004.3 993.4 +23.2 0.0
03 25.05 СВ 4 6000 м {морось} 3/1 1000 м
[Cu hum Ac lent]
+31.2 +25.4 71 +45 +53 опасность
перегрева
1005.1 994.4
06 25.05 ЮВ 2 8000 м 8/5 600 м
[Cu Sc Ac As]
+34.0 +28.8 74 +57 +63 опасность
перегрева
1003.2 992.7
09 25.05 ЮВ 1 9000 м 6/4 600 м
[Cu Sc Ac As]
+34.5 +29.3 74 +59 +64 опасность
перегрева
1000.3 989.8
12 25.05 СЗ 2 3000 м 8/5 600 м
[Cu Sc Ac As]
+30.9 +26.7 78 +48 +48 опасность
перегрева
999.4 988.8 +36.5 0.0
00 26.05 штиль 0 4000 м 5/3 600 м
[Cu Sc Ac As]
+24.5 +24.5 100 +34 +35 очень
душно
1004.3 993.4 +21.0 39
03 26.05 СВ 2 7000 м 1/1 1000 м
[Cu hum]
+29.0 +25.9 83 +43 +56 опасность
перегрева
1005.0 994.3
06 26.05 СВ 2 10 км 4/1 1000 м
[Cu hum Ac lent]
+34.1 +28.8 74 +57 +72 опасность
перегрева
1003.1 992.6
09 26.05 СЗ 6 5000 м слаб. морось 9/5 600 м
[Cu Sc Ac As]
+32.0 +28.1 80 +53 +54 опасность
перегрева
1001.2 990.6
12 26.05 штиль 0 4000 м {морось} ясно +31.0 +28.2 85 +52 +52 опасность
перегрева
1000.0 989.4 +36.7 2

 

Местоположение метеостанции Катха (Мьянма): широта 24.17 долгота 96.33 высота над уровнем моря 95 м.

В архиве по умолчанию представлена погода в Катхе за последнюю неделю. Архивные данные за месяц целиком и за предыдущие месяцы, начиная с января 2011 года, Вы можете получить, выбрав интересующий диапазон дат из раскрывающегося списка и нажав кнопку "Ввод!".


*Определитесь, кто Вы:
робот инопланетянин человек

Внимание! Время в таблицах - всемирное. Для получения местного времени необходимо прибавить поправку, которая равна 6.5 ч.

Смотрите также архив погоды в соседних городах и на ближайших метеорологических станциях:

Погода в Банмо (Мьянма) (89 км)
Погода в Могоу (Мьянма) (140 км)
Погода в Жуйли (Юньнань, Китай) (153 км)
Погода в Хомалине (Мьянма) (163 км)
Погода в Мьичине (Мьянма) (172 км)
Погода в Шуэбо (Мьянма) (187 км)
Погода в Лашо (Мьянма) (200 км)
Погода в Молейке (Мьянма) (203 км)
Погода в Хкамти (Мьянма) (213 км)
Погода в Калеве (Мьянма) (233 км)

Пояснения к столбцам:

Ветер - указаны скорость ветра в м/с - средняя за 10 мин, порывы в срок и между сроками (в фигурных скобках) и направление, откуда дует ветер: С - северный, СВ - северо-восточный, В - восточный, ЮВ - юго-восточный, Ю - южный, ЮЗ - юго-западный, З - западный, СЗ - северо-западный.
Видимость - горизонтальная дальность видимости в метрах или километрах. При видимости от 1 до 10 км при отсутствии осадков обычно наблюдается дымка, при ухудшении видимости до 1 км и менее - туман. В сухую погоду видимость может ухудшаться дымом, пылью или мглою.
Явления - указаны атмосферные явления, наблюдавшиеся в срок или в последний час перед сроком; фигурными скобками обозначены явления, наблюдавшиеся между сроками (за 1-3 часа до срока); квадратными скобками обозначены град или гололедные отложения с указанием их диаметра в мм.
Облачность - указаны через наклонную черту общая и нижняя облачность в баллах и высота нижней границы облаков в метрах; квадратными скобками обозначены формы облаков: Ci - перистые, Cs - перисто-слоистые, Cc - перисто-кучевые, Ac - высококучевые, As - высокослоистые, Sc - слоисто-кучевые, Ns - слоисто-дождевые, Cu - кучевые, Cb - кучево-дождевые. Подробнее классификацию облаков см. в Атласе облаков (PDF).
T - Температура воздуха - температура, измеренная на высоте 2 м над землей.
Td - Температура точки росы - температура, при понижении до которой содержащийся в воздухе водяной пар достигнет насыщения.
f - Относительная влажность воздуха - влажноcть воздуха, измеренная на высоте 2 м над землей.
Te - Эффективная температура - температура, которую ощущает одетый по сезону человек в тени. Характеристика душности погоды. При расчете учитывается влияние влажности воздуха и скорости ветра на теплоощущения человека.
Tes - Эффективная температура на солнце - температура, которую ощущает человек, с поправкой на солнечный нагрев. Характеристика знойности погоды. Зависит от высоты солнца над горизонтом, облачности и скорости ветра. Ночью, в пасмурную погоду, а также при ветре 12 м/с и более поправка равна нулю.
P - Атмосферное давление - приведенное к уровню моря атмосферное давление.
Po - Атмосферное давление - измеренное на уровне метеостанции атмосферное давление.
Tmin - Минимальная температура - минимум температуры воздуха на высоте 2 м над землей.
Tmax - Максимальная температура - максимум температуры воздуха на высоте 2 м над землей.
R - Количество осадков - Количество выпавших осадков за период времени, мм. При наведении курсора мыши на число - период времени, за который выпало указанное количество осадков.
R24 - Количество осадков - Количество выпавших осадков за 24 часа, мм.
S - Снежный покров - Высота снежного покрова, см. При наведении курсора мыши на число - состояние снежного покрова и степень покрытия местности в баллах.